QFA2545 YBBN-YSSY

Flight info

Callsign QFA2545
Flight time 1h 9m
Altitude 40000
Route BN H91 IGDAM H652 TESAT
Aircraft A388/J-SADE2E3FGHIJ3J4J5M1RWXY/LB1D1

Departure

Time 2026-05-04 07:30
Airport Brisbane International Airport (YBBN)

Arrival

Time 2026-05-04 08:40
Airport Sydney Kingsford Smith International Airport (YSSY)
Time Latitude Longitude Altitude Speed Heading
2026-05-04 07:01 -27.38483 153.12157 23 ft 0 kts 295°
2026-05-04 07:17 -27.38486 153.12162 23 ft 1 kts 295°
2026-05-04 07:17 -27.38488 153.12169 27 ft 1 kts 295°
2026-05-04 07:18 -27.38490 153.12173 27 ft 1 kts 295°
2026-05-04 07:18 -27.38494 153.12183 27 ft 1 kts 294°
2026-05-04 07:18 -27.38495 153.12187 28 ft 1 kts 290°
2026-05-04 07:18 -27.38497 153.12195 28 ft 1 kts 284°
2026-05-04 07:19 -27.38498 153.12202 28 ft 1 kts 277°
2026-05-04 07:19 -27.38498 153.12212 28 ft 1 kts 269°
2026-05-04 07:19 -27.38497 153.12220 28 ft 1 kts 263°
2026-05-04 07:19 -27.38496 153.12224 28 ft 1 kts 259°
2026-05-04 07:20 -27.38494 153.12232 28 ft 1 kts 252°
2026-05-04 07:20 -27.38491 153.12238 27 ft 1 kts 245°
2026-05-04 07:20 -27.38488 153.12245 27 ft 1 kts 238°
2026-05-04 07:20 -27.38483 153.12251 28 ft 1 kts 229°
2026-05-04 07:22 -27.38455 153.12255 28 ft 0 kts 163°
2026-05-04 07:23 -27.38468 153.12262 27 ft 3 kts 150°
2026-05-04 07:23 -27.38484 153.12273 26 ft 0 kts 146°
2026-05-04 07:23 -27.38498 153.12284 26 ft 5 kts 146°
2026-05-04 07:23 -27.38526 153.12319 23 ft 8 kts 123°
2026-05-04 07:24 -27.38557 153.12382 27 ft 10 kts 105°
2026-05-04 07:24 -27.38535 153.12446 27 ft 10 kts 38°
2026-05-04 07:24 -27.38466 153.12494 23 ft 14 kts 28°
2026-05-04 07:24 -27.38370 153.12552 25 ft 17 kts 28°
2026-05-04 07:25 -27.38255 153.12618 25 ft 20 kts 26°
2026-05-04 07:26 -27.37704 153.12924 25 ft 18 kts 26°
2026-05-04 07:27 -27.37579 153.13002 27 ft 23 kts 29°
2026-05-04 07:27 -27.37447 153.13081 27 ft 19 kts 23°
2026-05-04 07:27 -27.37338 153.13134 27 ft 15 kts 24°
2026-05-04 07:27 -27.37280 153.13194 26 ft 8 kts 89°
2026-05-04 07:28 -27.37284 153.13248 24 ft 6 kts 103°
2026-05-04 07:28 -27.37293 153.13283 26 ft 4 kts 112°
2026-05-04 07:28 -27.37303 153.13310 26 ft 4 kts 120°
2026-05-04 07:28 -27.37319 153.13337 25 ft 5 kts 122°
2026-05-04 07:29 -27.37344 153.13378 24 ft 7 kts 136°
2026-05-04 07:29 -27.37393 153.13419 29 ft 11 kts 156°
2026-05-04 07:29 -27.37488 153.13417 27 ft 18 kts 199°
2026-05-04 07:29 -27.37805 153.13242 27 ft 93 kts 206°
2026-05-04 07:30 -27.38587 153.12795 27 ft 153 kts 207°
2026-05-04 07:30 -27.39622 153.12184 229 ft 174 kts 206°
2026-05-04 07:30 -27.40724 153.11539 592 ft 185 kts 204°
2026-05-04 07:30 -27.41927 153.10863 754 ft 200 kts 204°
2026-05-04 07:31 -27.43203 153.10148 863 ft 209 kts 203°
2026-05-04 07:31 -27.44649 153.09830 919 ft 223 kts 172°
2026-05-04 07:33 -27.54274 153.13925 6418 ft 270 kts 193°
2026-05-04 07:33 -27.56129 153.13358 7112 ft 280 kts 199°
2026-05-04 07:33 -27.57967 153.12588 7955 ft 284 kts 200°
2026-05-04 07:33 -27.59848 153.11827 8835 ft 288 kts 200°
2026-05-04 07:34 -27.61752 153.11076 9710 ft 293 kts 200°
2026-05-04 07:34 -27.63717 153.10361 10400 ft 303 kts 198°
2026-05-04 07:34 -27.65820 153.09671 10654 ft 326 kts 197°
2026-05-04 07:34 -27.68077 153.08945 10930 ft 345 kts 197°
2026-05-04 07:35 -27.70407 153.08188 11559 ft 351 kts 197°
2026-05-04 07:35 -27.72763 153.07413 12250 ft 355 kts 198°
2026-05-04 07:35 -27.75146 153.06621 12933 ft 360 kts 198°
2026-05-04 07:35 -27.77566 153.05813 13589 ft 365 kts 199°
2026-05-04 07:36 -27.80016 153.04993 14235 ft 369 kts 199°
2026-05-04 07:36 -27.82468 153.04121 14865 ft 370 kts 203°
2026-05-04 07:38 -27.99760 152.96528 19042 ft 392 kts 205°
2026-05-04 07:38 -28.02309 152.95410 19552 ft 395 kts 206°
2026-05-04 07:38 -28.04879 152.94282 20079 ft 397 kts 206°
2026-05-04 07:38 -28.07473 152.93142 20581 ft 400 kts 206°
2026-05-04 07:39 -28.10073 152.91998 21085 ft 403 kts 206°
2026-05-04 07:39 -28.12692 152.90839 21575 ft 405 kts 206°
2026-05-04 07:39 -28.15323 152.89668 22069 ft 408 kts 207°
2026-05-04 07:39 -28.17979 152.88485 22579 ft 410 kts 207°
2026-05-04 07:40 -28.20646 152.87297 23064 ft 413 kts 207°
2026-05-04 07:40 -28.23334 152.86100 23539 ft 416 kts 207°
2026-05-04 07:40 -28.26039 152.84896 23996 ft 418 kts 207°
2026-05-04 07:40 -28.28750 152.83689 24445 ft 420 kts 207°
2026-05-04 07:41 -28.31441 152.82491 24878 ft 422 kts 208°
2026-05-04 07:41 -28.34182 152.81268 25320 ft 424 kts 208°
2026-05-04 07:41 -28.36929 152.80042 25801 ft 424 kts 208°
2026-05-04 07:41 -28.39691 152.78810 26253 ft 427 kts 208°
2026-05-04 07:42 -28.42472 152.77568 26654 ft 431 kts 208°
2026-05-04 07:42 -28.45268 152.76319 27222 ft 432 kts 209°
2026-05-04 07:42 -28.48074 152.75063 27711 ft 435 kts 209°
2026-05-04 07:42 -28.50901 152.73797 28261 ft 437 kts 210°
2026-05-04 07:43 -28.53741 152.72525 28828 ft 439 kts 210°
2026-05-04 07:43 -28.56595 152.71245 29345 ft 443 kts 210°
2026-05-04 07:43 -28.59468 152.69957 29866 ft 446 kts 210°
2026-05-04 07:43 -28.62328 152.68674 30382 ft 448 kts 210°
2026-05-04 07:44 -28.65270 152.67355 30890 ft 450 kts 210°
2026-05-04 07:44 -28.68155 152.66061 31386 ft 452 kts 211°
2026-05-04 07:44 -28.71084 152.64745 31842 ft 454 kts 211°
2026-05-04 07:44 -28.74041 152.63416 32314 ft 457 kts 211°
2026-05-04 07:45 -28.77001 152.62084 32790 ft 459 kts 212°
2026-05-04 07:45 -28.79982 152.60742 33274 ft 461 kts 212°
2026-05-04 07:45 -28.82972 152.59395 33721 ft 464 kts 212°
2026-05-04 07:45 -28.85920 152.57933 34170 ft 458 kts 217°
2026-05-04 07:46 -28.88743 152.56240 34535 ft 459 kts 218°
2026-05-04 07:46 -28.91591 152.54538 34922 ft 462 kts 218°
2026-05-04 07:46 -28.94447 152.52844 35399 ft 463 kts 218°
2026-05-04 07:46 -28.97260 152.51178 35947 ft 461 kts 218°
2026-05-04 07:47 -29.00110 152.49488 36431 ft 460 kts 219°
2026-05-04 07:47 -29.02950 152.47799 36942 ft 459 kts 219°
2026-05-04 07:47 -29.05777 152.46116 37456 ft 458 kts 219°
2026-05-04 07:49 -29.25416 152.34368 40115 ft 463 kts 219°
2026-05-04 07:49 -29.31232 152.30870 40125 ft 481 kts 218°
2026-05-04 07:50 -29.37265 152.27247 40130 ft 498 kts 218°
2026-05-04 07:50 -29.40318 152.25425 40123 ft 484 kts 218°
2026-05-04 07:50 -29.43255 152.23686 40122 ft 466 kts 218°
2026-05-04 07:51 -29.46087 152.22002 40122 ft 450 kts 219°
2026-05-04 07:51 -29.48816 152.20367 40126 ft 438 kts 219°
2026-05-04 07:51 -29.54235 152.17067 40127 ft 451 kts 219°
2026-05-04 07:52 -29.59873 152.13651 40126 ft 454 kts 219°
2026-05-04 07:52 -29.65414 152.10317 40131 ft 452 kts 219°
2026-05-04 07:54 -29.90664 152.02118 40134 ft 478 kts 205°
2026-05-04 07:55 -29.97172 152.00412 40135 ft 479 kts 205°
2026-05-04 07:55 -30.03670 151.98711 40131 ft 479 kts 205°
2026-05-04 07:56 -30.10170 151.97006 40140 ft 479 kts 205°
2026-05-04 07:56 -30.16639 151.95307 40137 ft 480 kts 205°
2026-05-04 07:57 -30.23145 151.93597 40128 ft 480 kts 205°
2026-05-04 07:57 -30.29662 151.91876 40132 ft 479 kts 206°
2026-05-04 07:58 -30.35880 151.89524 40124 ft 463 kts 215°
2026-05-04 07:58 -30.41854 151.86722 40123 ft 464 kts 214°
2026-05-04 07:59 -30.47856 151.83946 40123 ft 464 kts 214°
2026-05-04 07:59 -30.53851 151.81158 40118 ft 464 kts 214°
2026-05-04 08:00 -30.59814 151.78377 40114 ft 464 kts 214°
2026-05-04 08:02 -30.83800 151.67148 40105 ft 464 kts 214°
2026-05-04 08:02 -30.89796 151.64331 40101 ft 464 kts 214°
2026-05-04 08:03 -30.95631 151.61586 40099 ft 464 kts 214°
2026-05-04 08:03 -31.01630 151.58760 40099 ft 465 kts 214°
2026-05-04 08:04 -31.07628 151.55932 40097 ft 465 kts 214°
2026-05-04 08:04 -31.13630 151.53097 40097 ft 466 kts 214°
2026-05-04 08:05 -31.19641 151.50254 40100 ft 466 kts 214°
2026-05-04 08:05 -31.25662 151.47403 40099 ft 467 kts 214°
2026-05-04 08:06 -31.31681 151.44549 40096 ft 467 kts 214°
2026-05-04 08:06 -31.37661 151.41710 40099 ft 467 kts 214°
2026-05-04 08:08 -31.61076 151.31219 40092 ft 470 kts 213°
2026-05-04 08:11 -31.88555 151.18872 40087 ft 469 kts 213°
2026-05-04 08:11 -31.97706 151.14749 40064 ft 469 kts 213°
2026-05-04 08:12 -32.03804 151.12019 40051 ft 469 kts 213°
2026-05-04 08:12 -32.06852 151.10655 39862 ft 465 kts 213°
2026-05-04 08:12 -32.09861 151.09311 39630 ft 461 kts 213°
2026-05-04 08:13 -32.12859 151.07967 39404 ft 459 kts 214°
2026-05-04 08:13 -32.15851 151.06620 39177 ft 459 kts 214°
2026-05-04 08:13 -32.18791 151.05293 38963 ft 459 kts 214°
2026-05-04 08:13 -32.21782 151.03944 38739 ft 458 kts 214°
2026-05-04 08:14 -32.24757 151.02602 38482 ft 458 kts 214°
2026-05-04 08:14 -32.27746 151.01250 38205 ft 460 kts 214°
2026-05-04 08:14 -32.30733 150.99898 37944 ft 461 kts 214°
2026-05-04 08:16 -32.52936 150.91940 32288 ft 519 kts 187°
2026-05-04 08:16 -32.56524 150.92438 31925 ft 517 kts 180°
2026-05-04 08:16 -32.60070 150.93086 31208 ft 514 kts 179°
2026-05-04 08:17 -32.63625 150.93703 30238 ft 518 kts 179°
2026-05-04 08:17 -32.67190 150.94320 29478 ft 516 kts 178°
2026-05-04 08:17 -32.70722 150.94941 28783 ft 510 kts 178°
2026-05-04 08:17 -32.74219 150.95560 28007 ft 507 kts 177°
2026-05-04 08:19 -32.97777 150.99755 23611 ft 470 kts 176°
2026-05-04 08:19 -33.00999 151.00330 22919 ft 465 kts 176°
2026-05-04 08:20 -33.04141 151.00892 22253 ft 459 kts 176°
2026-05-04 08:20 -33.07289 151.01454 21558 ft 455 kts 176°
2026-05-04 08:20 -33.10409 151.02012 20914 ft 450 kts 175°
2026-05-04 08:20 -33.13490 151.02564 20265 ft 446 kts 175°
2026-05-04 08:21 -33.16547 151.03112 19629 ft 441 kts 175°
2026-05-04 08:21 -33.19570 151.03654 19025 ft 437 kts 175°
2026-05-04 08:21 -33.22572 151.04192 18419 ft 433 kts 175°
2026-05-04 08:21 -33.25524 151.04726 17741 ft 429 kts 174°
2026-05-04 08:22 -33.28462 151.05285 17035 ft 425 kts 174°
2026-05-04 08:22 -33.31365 151.05849 16422 ft 420 kts 174°
2026-05-04 08:24 -33.50929 151.09619 11922 ft 393 kts 173°
2026-05-04 08:24 -33.53609 151.10142 11378 ft 386 kts 175°
2026-05-04 08:24 -33.56203 151.10282 11097 ft 371 kts 183°
2026-05-04 08:24 -33.58788 151.10295 10853 ft 362 kts 183°
2026-05-04 08:25 -33.61260 151.10269 10631 ft 358 kts 184°
2026-05-04 08:25 -33.63716 151.10192 10516 ft 348 kts 185°
2026-05-04 08:25 -33.66086 151.10086 10409 ft 334 kts 186°
2026-05-04 08:25 -33.68368 151.09967 10290 ft 321 kts 186°
2026-05-04 08:26 -33.70576 151.09844 10093 ft 315 kts 186°
2026-05-04 08:27 -33.85584 151.08991 9130 ft 313 kts 187°
2026-05-04 08:28 -33.87847 151.08857 8853 ft 337 kts 186°
2026-05-04 08:28 -33.90237 151.08718 8497 ft 344 kts 186°
2026-05-04 08:28 -33.92583 151.08591 8151 ft 341 kts 186°
2026-05-04 08:28 -33.94947 151.08463 7801 ft 338 kts 186°
2026-05-04 08:29 -33.97292 151.08334 7458 ft 337 kts 186°
2026-05-04 08:29 -33.99638 151.08203 7096 ft 335 kts 186°
2026-05-04 08:29 -34.01969 151.08073 6739 ft 334 kts 186°
2026-05-04 08:31 -34.17056 151.10079 4404 ft 299 kts 170°
2026-05-04 08:33 -34.28928 151.16844 2985 ft 276 kts 91°
2026-05-04 08:33 -34.28685 151.19085 2985 ft 266 kts 63°
2026-05-04 08:35 -34.17992 151.23698 2992 ft 241 kts 346°
2026-05-04 08:35 -34.16347 151.23260 2993 ft 243 kts 347°
2026-05-04 08:35 -34.14698 151.22833 2998 ft 241 kts 347°
2026-05-04 08:35 -34.13056 151.22402 2994 ft 241 kts 347°
2026-05-04 08:37 -34.04109 151.20066 1572 ft 178 kts 348°
2026-05-04 08:37 -34.03015 151.19778 1353 ft 146 kts 349°
2026-05-04 08:37 -34.02066 151.19536 1159 ft 132 kts 351°
2026-05-04 08:38 -34.01175 151.19297 999 ft 130 kts 350°
2026-05-04 08:38 -34.00281 151.19075 825 ft 132 kts 351°
2026-05-04 08:38 -33.99396 151.18834 649 ft 129 kts 351°
2026-05-04 08:40 -33.94711 151.17618 34 ft 20 kts 348°
2026-05-04 08:40 -33.94586 151.17570 35 ft 24 kts 337°
2026-05-04 08:40 -33.94440 151.17478 35 ft 22 kts 331°
2026-05-04 08:41 -33.94381 151.17440 35 ft 1 kts 326°
2026-05-04 08:41 -33.94373 151.17432 35 ft 0 kts 313°
2026-05-04 08:41 -33.94367 151.17425 35 ft 2 kts 312°
2026-05-04 08:41 -33.94336 151.17383 35 ft 17 kts 311°
2026-05-04 08:42 -33.94196 151.17287 33 ft 24 kts 341°
2026-05-04 08:42 -33.94061 151.17236 34 ft 17 kts 342°
2026-05-04 08:42 -33.93968 151.17211 34 ft 11 kts 352°
2026-05-04 08:42 -33.93902 151.17201 34 ft 8 kts 353°
2026-05-04 08:43 -33.93861 151.17195 34 ft 5 kts 353°
2026-05-04 08:43 -33.93833 151.17191 34 ft 6 kts 349°
2026-05-04 08:43 -33.93762 151.17173 34 ft 14 kts 347°
2026-05-04 08:43 -33.93650 151.17142 34 ft 17 kts 347°
2026-05-04 08:44 -33.93552 151.17113 34 ft 12 kts 338°
2026-05-04 08:44 -33.93511 151.17058 35 ft 7 kts 282°
2026-05-04 08:46 -33.93562 151.16826 35 ft 0 kts 241°